Total_Precipitation_Accumulation
0.22 0.25 0.34 0.53 0.63 0.56 0.50 0.50 0.60 0.54 0.53 0.58 0.65 0.72 0.69 0.65 0.65 0.66 0.69 0.73 0.78 0.82 0.78 0.69 0.67 0.65 0.74 0.91 1.07 1.28 1.54 1.55 1.39 1.32 1.29 1.16 1.09 1.09 1.04 1.03 0.95 0.93 1.00 1.09
0.15 0.16 0.22 0.33 0.37 0.31 0.26 0.33 0.45 0.49 0.56 0.59 0.65 0.71 0.65 0.57 0.51 0.46 0.47 0.53 0.60 0.66 0.72 0.62 0.53 0.53 0.53 0.64 0.85 1.03 1.23 1.33 1.32 1.24 1.13 1.09 1.10 1.06 0.99 0.96 0.91 0.84 0.83 0.86
0.17 0.16 0.21 0.29 0.26 0.27 0.31 0.34 0.40 0.53 0.64 0.64 0.74 0.92 0.83 0.66 0.58 0.47 0.40 0.38 0.43 0.47 0.55 0.58 0.53 0.50 0.53 0.58 0.68 0.82 0.98 1.09 1.10 1.04 0.94 0.95 1.00 0.96 0.90 0.84 0.83 0.77 0.75 0.70
0.30 0.33 0.46 0.39 0.28 0.35 0.46 0.42 0.44 0.55 0.60 0.67 0.98 1.17 0.80 0.57 0.53 0.46 0.39 0.36 0.38 0.43 0.46 0.47 0.48 0.50 0.51 0.52 0.55 0.61 0.70 0.78 0.82 0.86 0.83 0.83 0.87 0.88 0.91 0.86 0.78 0.72 0.74 0.78
0.44 0.47 0.63 0.51 0.30 0.42 0.49 0.47 0.39 0.49 0.55 0.56 0.60 0.54 0.36 0.25 0.26 0.30 0.26 0.25 0.25 0.27 0.30 0.34 0.37 0.40 0.42 0.47 0.50 0.49 0.50 0.54 0.59 0.64 0.71 0.77 0.78 0.81 0.93 0.94 0.86 0.81 0.89 0.92
0.42 0.46 0.52 0.48 0.27 0.30 0.42 0.54 0.29 0.30 0.32 0.27 0.24 0.26 0.26 0.22 0.17 0.16 0.15 0.16 0.16 0.16 0.18 0.23 0.28 0.31 0.35 0.40 0.45 0.46 0.46 0.48 0.53 0.54 0.60 0.71 0.80 0.83 0.81 0.77 0.80 0.86 0.87 0.81
0.35 0.37 0.30 0.25 0.23 0.28 0.54 0.57 0.26 0.23 0.22 0.19 0.20 0.20 0.24 0.26 0.19 0.16 0.14 0.14 0.15 0.15 0.18 0.21 0.29 0.34 0.35 0.39 0.42 0.44 0.49 0.49 0.51 0.53 0.55 0.61 0.66 0.66 0.67 0.72 0.71 0.69 0.68 0.71
0.34 0.38 0.34 0.23 0.26 0.37 0.38 0.25 0.23 0.25 0.24 0.21 0.18 0.17 0.17 0.20 0.18 0.15 0.13 0.15 0.16 0.17 0.19 0.19 0.24 0.34 0.39 0.43 0.44 0.44 0.45 0.45 0.43 0.43 0.44 0.46 0.50 0.52 0.53 0.61 0.67 0.70 0.72 0.75
0.41 0.39 0.31 0.26 0.29 0.28 0.26 0.25 0.23 0.26 0.24 0.23 0.21 0.18 0.16 0.15 0.14 0.12 0.13 0.16 0.18 0.19 0.24 0.27 0.25 0.31 0.38 0.45 0.47 0.45 0.43 0.39 0.41 0.40 0.40 0.37 0.40 0.46 0.53 0.55 0.57 0.60 0.65 0.72
0.32 0.28 0.24 0.23 0.22 0.23 0.24 0.24 0.22 0.23 0.23 0.24 0.25 0.21 0.17 0.15 0.14 0.13 0.13 0.16 0.21 0.26 0.29 0.34 0.33 0.34 0.38 0.43 0.45 0.43 0.39 0.36 0.38 0.40 0.40 0.38 0.38 0.41 0.44 0.47 0.48 0.52 0.58 0.62
0.27 0.23 0.20 0.19 0.19 0.17 0.17 0.17 0.18 0.19 0.19 0.21 0.22 0.21 0.18 0.15 0.15 0.14 0.13 0.16 0.21 0.29 0.32 0.33 0.37 0.41 0.44 0.42 0.40 0.40 0.37 0.35 0.34 0.39 0.41 0.40 0.39 0.41 0.43 0.45 0.54 0.59 0.60 0.62
0.31 0.22 0.22 0.19 0.15 0.13 0.14 0.13 0.16 0.19 0.18 0.16 0.17 0.16 0.16 0.16 0.17 0.15 0.14 0.18 0.22 0.27 0.31 0.34 0.38 0.41 0.43 0.40 0.34 0.35 0.37 0.36 0.34 0.33 0.35 0.38 0.41 0.41 0.46 0.48 0.57 0.61 0.63 0.63
0.26 0.23 0.21 0.18 0.15 0.14 0.15 0.13 0.13 0.14 0.15 0.16 0.15 0.15 0.15 0.16 0.18 0.17 0.18 0.18 0.20 0.23 0.26 0.29 0.33 0.35 0.36 0.38 0.32 0.30 0.34 0.35 0.33 0.31 0.32 0.34 0.38 0.43 0.46 0.46 0.46 0.46 0.50 0.56
0.17 0.19 0.19 0.16 0.14 0.15 0.16 0.14 0.12 0.12 0.12 0.15 0.17 0.18 0.18 0.19 0.20 0.18 0.19 0.18 0.19 0.22 0.22 0.24 0.28 0.31 0.33 0.33 0.33 0.34 0.36 0.35 0.35 0.36 0.35 0.38 0.40 0.44 0.55 0.63 0.58 0.46 0.49 0.52
0.13 0.15 0.17 0.16 0.14 0.14 0.14 0.13 0.13 0.13 0.14 0.14 0.15 0.15 0.16 0.18 0.20 0.19 0.17 0.18 0.18 0.18 0.20 0.21 0.26 0.30 0.30 0.31 0.33 0.34 0.38 0.40 0.42 0.44 0.42 0.44 0.48 0.52 0.56 0.50 0.50 0.51 0.49 0.51
0.15 0.15 0.15 0.17 0.17 0.15 0.14 0.14 0.15 0.15 0.15 0.16 0.16 0.15 0.16 0.18 0.21 0.20 0.17 0.18 0.18 0.17 0.18 0.22 0.26 0.31 0.31 0.29 0.33 0.34 0.36 0.45 0.50 0.55 0.49 0.45 0.52 0.55 0.51 0.48 0.51 0.54 0.51 0.49
0.18 0.17 0.19 0.20 0.19 0.18 0.18 0.17 0.17 0.18 0.17 0.19 0.20 0.18 0.17 0.17 0.19 0.18 0.18 0.18 0.16 0.15 0.18 0.24 0.25 0.30 0.33 0.32 0.33 0.36 0.42 0.44 0.47 0.54 0.55 0.51 0.57 0.57 0.55 0.53 0.53 0.54 0.53 0.56
0.20 0.20 0.20 0.21 0.21 0.22 0.22 0.21 0.19 0.18 0.19 0.20 0.22 0.22 0.20 0.20 0.23 0.20 0.21 0.20 0.18 0.18 0.23 0.30 0.31 0.33 0.34 0.33 0.34 0.37 0.43 0.47 0.44 0.48 0.53 0.55 0.58 0.58 0.59 0.57 0.53 0.53 0.54 0.56
0.21 0.22 0.23 0.23 0.24 0.25 0.24 0.24 0.22 0.21 0.21 0.25 0.28 0.25 0.22 0.24 0.26 0.24 0.25 0.26 0.24 0.26 0.30 0.35 0.41 0.39 0.37 0.38 0.41 0.40 0.42 0.50 0.48 0.48 0.49 0.54 0.55 0.54 0.60 0.61 0.59 0.58 0.57 0.55
0.26 0.26 0.28 0.30 0.29 0.28 0.26 0.24 0.22 0.23 0.24 0.27 0.30 0.28 0.25 0.24 0.24 0.26 0.27 0.30 0.30 0.33 0.38 0.41 0.42 0.42 0.42 0.44 0.48 0.44 0.46 0.54 0.58 0.59 0.58 0.58 0.56 0.55 0.56 0.55 0.57 0.61 0.59 0.56
0.29 0.27 0.28 0.30 0.31 0.30 0.30 0.29 0.26 0.25 0.26 0.30 0.34 0.37 0.36 0.33 0.32 0.32 0.30 0.33 0.33 0.34 0.37 0.42 0.41 0.45 0.48 0.51 0.53 0.49 0.50 0.56 0.62 0.68 0.72 0.71 0.67 0.62 0.59 0.55 0.56 0.59 0.56 0.56
0.30 0.29 0.29 0.30 0.31 0.31 0.31 0.33 0.30 0.30 0.31 0.34 0.38 0.39 0.40 0.39 0.38 0.37 0.34 0.36 0.39 0.45 0.42 0.41 0.43 0.53 0.61 0.61 0.53 0.50 0.51 0.55 0.61 0.68 0.76 0.79 0.76 0.72 0.68 0.62 0.59 0.57 0.55 0.57
0.29 0.28 0.31 0.32 0.31 0.30 0.30 0.33 0.32 0.31 0.33 0.35 0.38 0.39 0.39 0.38 0.35 0.37 0.40 0.40 0.41 0.49 0.46 0.46 0.52 0.60 0.65 0.57 0.54 0.53 0.54 0.58 0.61 0.63 0.72 0.79 0.79 0.78 0.74 0.72 0.69 0.65 0.62 0.62
0.25 0.27 0.29 0.29 0.28 0.29 0.31 0.31 0.31 0.32 0.32 0.31 0.32 0.35 0.38 0.40 0.37 0.35 0.41 0.48 0.52 0.53 0.48 0.53 0.57 0.61 0.63 0.56 0.55 0.53 0.55 0.60 0.63 0.63 0.69 0.74 0.76 0.76 0.75 0.73 0.72 0.71 0.69 0.67
0.24 0.25 0.26 0.27 0.28 0.29 0.29 0.29 0.29 0.30 0.31 0.31 0.29 0.31 0.36 0.41 0.45 0.44 0.45 0.50 0.57 0.58 0.53 0.57 0.58 0.56 0.51 0.53 0.57 0.57 0.58 0.64 0.70 0.72 0.73 0.75 0.73 0.72 0.72 0.71 0.71 0.73 0.73 0.73
0.24 0.25 0.25 0.25 0.27 0.30 0.29 0.30 0.32 0.31 0.33 0.35 0.33 0.33 0.38 0.43 0.46 0.48 0.49 0.54 0.59 0.64 0.58 0.54 0.53 0.53 0.52 0.56 0.60 0.60 0.63 0.66 0.69 0.71 0.71 0.72 0.69 0.68 0.67 0.69 0.70 0.72 0.74 0.76
0.25 0.25 0.25 0.26 0.28 0.31 0.33 0.35 0.38 0.39 0.39 0.38 0.36 0.35 0.41 0.48 0.48 0.48 0.50 0.54 0.58 0.61 0.61 0.61 0.60 0.62 0.65 0.67 0.70 0.71 0.69 0.68 0.66 0.67 0.71 0.72 0.72 0.71 0.69 0.68 0.70 0.71 0.73 0.75